Regional Weather Roundup
Issued by NWS

Home | Current Version | Previous Version | Graphics & Text | Print | Product List | Glossary On
Versions: 1 2 3 4 5 6 7 8 9 10 11 12 13 14 15 16 17 18 19 20 21 22 23 24 25 26 27 28 29 30 31 32 33 34 35 36 37 38 39 40 41 42 43 44 45 46 47 48 49 50
000
ASUS43 KOAX 022010
RWRNE

WEATHER ROUNDUP FOR NEBRASKA
NATIONAL WEATHER SERVICE OMAHA NE
300 PM CDT TUE JUN 02 2015

NOTES: SATELLITE DATA IS BEING USED TO AUGMENT CLOUD COVER ABOVE
       12000 FEET.
       "FAIR" INDICATES FEW OR NO CLOUDS BELOW 12,000 FEET WITH NO
       SIGNIFICANT WEATHER AND/OR OBSTRUCTIONS TO VISIBILITY.

  * THESE STATIONS DO NOT REPORT WEATHER SUCH AS RAIN...SNOW OR FOG.

NEZ001>004-019>022-054>056-022100-
NEBRASKA PANHANDLE

CITY           SKY/WX    TMP DP  RH WIND       PRES   REMARKS
SCOTTSBLUFF    MOSUNNY   83  60  45 SE6       29.84F
ALLIANCE       SUNNY     80  61  52 SE5       29.84F
CHADRON        SUNNY     82  62  50 N3        29.82F
KIMBALL          N/A    N/A N/A N/A MISG        N/A
SIDNEY         MOSUNNY   80  61  52 MISG      29.88F
$$

NEZ057>060-069>072-079>082-022100-
SOUTHWEST NEBRASKA

CITY           SKY/WX    TMP DP  RH WIND       PRES   REMARKS
NORTH PLATTE   MOSUNNY   83  66  56 S10       29.83F
IMPERIAL       MOSUNNY   82  66  58 S9        29.84F
LEXINGTON      PTSUNNY   78  69  73 SE12G17   29.86F
MCCOOK         SUNNY     84  66  54 SE13      29.83F
OGALLALA       SUNNY     82  62  50 SE5       29.84F
$$

NEZ005>010-023>029-035>040-094-022100-
NORTH CENTRAL NEBRASKA

CITY           SKY/WX    TMP DP  RH WIND       PRES   REMARKS
AINSWORTH      MOSUNNY   85  59  42 S14G20    29.83S
BROKEN BOW     PTSUNNY   76  64  66 S16       29.87F
O`NEILL        SUNNY     78  64  60 S15G21    29.85S
ORD            CLOUDY    72  61  68 SE16      29.87F
THEDFORD       SUNNY     85  60  44 S12       29.84F
$$

NEZ041-046>049-061>064-073>077-083>087-022100-
SOUTH CENTRAL NEBRASKA

CITY           SKY/WX    TMP DP  RH WIND       PRES   REMARKS
GRAND ISLAND   CLOUDY    74  62  66 SE15G22   29.90F
AURORA         PTSUNNY   77  63  61 S17       29.89F
HASTINGS       PTSUNNY   75  64  68 SE16G22   29.89F
HEBRON         MOSUNNY   80  62  53 S15       29.90F
HOLDREGE       MOSUNNY   77  63  62 S14       29.87F
KEARNEY *      CLOUDY    72  64  78 SE16      29.88F
YORK           CLOUDY    73  64  73 SE15      29.91F
$$

NEZ011>018-030>034-042>045-022100-
NORTHEAST NEBRASKA

CITY           SKY/WX    TMP DP  RH WIND       PRES   REMARKS
NORFOLK        PTSUNNY   77  63  61 S20G28    29.88F
ALBION         MOSUNNY   72  60  65 S16G23    29.89F
BLAIR          PTSUNNY   72  58  60 SE14G20   29.94F
COLUMBUS *     CLOUDY    73  61  64 S14G21    29.93F
FREMONT        CLOUDY    74  59  61 SE14      29.94S
TEKAMAH        CLOUDY    77  60  55 S17       29.93F
WAYNE          CLOUDY    73  61  67 S16       29.91F
$$

NEZ050>053-065>068-078-088>093-022100-
SOUTHEAST NEBRASKA

CITY           SKY/WX    TMP DP  RH WIND       PRES   REMARKS
LINCOLN        CLOUDY    75  62  64 SE15      29.94F
OMAHA EPPLEY   CLOUDY    74  60  61 SE17      29.95F
BEATRICE       CLOUDY    75  63  66 SE15G21   29.92F
FALLS CITY     CLOUDY    74  61  63 SE10G22   29.96F
NEBRASKA CITY  CLOUDY    71  56  59 SE12      29.97F
PLATTSMOUTH    CLOUDY    71  57  62 SE14      29.97S
$$

NEZ044-045-051>053-067-022100-
OMAHA AREA

CITY           SKY/WX    TMP DP  RH WIND       PRES   REMARKS
OMAHA EPPLEY   CLOUDY    74  60  61 SE17      29.95F
BLAIR          PTSUNNY   72  58  60 SE14G20   29.94F
FREMONT        CLOUDY    74  59  61 SE14      29.94S
MILLARD        CLOUDY    71  60  69 S12       29.94F
OFFUTT AFB     PTSUNNY   73  60  63 SE16      29.95F
PLATTSMOUTH    CLOUDY    71  57  62 SE14      29.97S
WAHOO          FAIR      69  64  82 SE16      29.94F
$$


USA.gov is the U.S. government's official web portal to all federal, state and local government web resources and services.